Location: Caltech
(34.1382°N, 118.1253°W)
Time: 20:19:47
(UTC-08:00)

Transit 2A - Visible Passes

Search period start: 20 January 2017 00:00
Search period end: 30 January 2017 00:00
Orbit: 600 x 960 km, 66.7° (Epoch: 20 January)

Date Brightness Start Highest point End Pass type
(mag) Time Alt. Az. Time Alt. Az. Time Alt. Az.
20 Jan 7.0 05:57:53 10° N 06:01:55 36° ENE 06:05:55 10° SE visible
21 Jan 7.7 05:24:18 10° N 05:27:49 23° NE 05:31:17 10° ESE visible
22 Jan 8.2 04:51:04 10° NNE 04:53:38 15° NE 04:56:11 10° E visible
22 Jan 8.1 19:25:18 10° S 19:26:42 17° SSE 19:26:42 17° SSE visible
23 Jan 5.4 05:58:43 10° NNW 06:03:03 73° WSW 06:07:23 10° SSE visible
23 Jan 7.7 18:52:10 10° SSE 18:54:42 19° SE 18:54:42 19° SE visible
23 Jan 8.7 20:34:13 10° SW 20:35:16 15° SW 20:35:16 15° SW visible
24 Jan 5.8 05:25:49 17° NNW 05:29:05 67° ENE 05:33:24 10° SE visible
24 Jan 7.7 18:19:37 10° SE 18:22:42 15° ESE 18:22:42 15° ESE visible
24 Jan 7.5 19:59:53 10° SW 20:03:17 35° SW 20:03:17 35° SW visible
25 Jan 6.7 04:53:24 28° NNE 04:55:03 40° ENE 04:59:09 10° SE visible
25 Jan 6.0 19:25:47 10° SSW 19:31:15 79° SSW 19:31:15 79° SSW visible
26 Jan 7.5 04:21:04 25° ENE 04:21:04 25° ENE 04:24:35 10° ESE visible
26 Jan 6.7 06:01:37 15° WNW 06:03:55 23° WSW 06:07:22 10° SSW visible
26 Jan 6.1 18:51:58 10° S 18:57:38 59° ESE 18:59:11 42° ENE visible
26 Jan 8.6 20:37:23 10° W 20:39:45 16° WNW 20:39:45 16° WNW visible
27 Jan 8.5 03:48:49 13° E 03:48:49 13° E 03:49:38 10° E visible
27 Jan 6.0 05:29:23 35° W 05:30:04 37° WSW 05:34:06 10° S visible
27 Jan 6.6 18:18:23 10° S 18:23:42 38° ESE 18:27:04 19° NE visible
27 Jan 7.8 20:02:18 10° WSW 20:06:54 26° WNW 20:07:37 25° NW visible
28 Jan 6.0 04:57:12 47° S 04:57:12 47° S 05:00:28 10° SSE visible
28 Jan 7.2 17:45:09 10° SSE 17:49:48 25° ESE 17:54:07 10° NE visible
28 Jan 7.3 19:27:36 10° SW 19:32:49 37° WNW 19:35:24 23° N visible
29 Jan 7.6 04:25:04 21° SSE 04:25:04 21° SSE 04:26:33 10° SSE visible
29 Jan 6.7 18:53:11 10° SW 18:58:47 56° WNW 19:03:06 14° NNE visible
